Location: Erraguntapalli
(18.7700°N, 79.7783°E)
Time: 04:28:01
(UTC+00:00)

Daily predictions for brighter satellites

Satellite Brightness Start Highest point End
(mag) Time Altitude Azimuth Time Altitude Azimuth Time Altitude Azimuth
Cosmos 1825 3.2 00:01:53 10° S 00:05:31 50° E 00:09:09 10° NNE
Cosmos 1125 Rocket 4.5 00:07:44 10° S 00:12:52 53° ESE 00:18:00 10° NNE
SWIFT 3.2 00:09:07 10° WSW 00:13:15 49° SSE 00:17:22 10° E
ISS -3.7 00:11:19 10° NW 00:14:41 82° NE 00:18:01 10° SE
Okean O Rocket 1.6 00:13:40 10° N 00:17:55 59° WNW 00:22:12 10° SSW
Cosmos 2100 Rocket 4.4 00:12:48 10° SSW 00:18:35 40° W 00:24:20 10° NNW
ASC 2 Rocket 3.9 00:11:53 10° WNW 00:19:03 68° SSW 00:23:57 10° ESE
ASTRO E2 3.9 00:17:40 10° W 00:21:09 30° SSW 00:24:38 10° SSE
USA 116 4.1 00:19:38 10° SSE 00:22:37 50° ENE 00:25:40 10° N
Milstar 3 3.4 00:15:51 10° WNW 00:23:31 48° SSW 00:29:56 10° SE
NOAA 6 4.1 00:21:07 10° N 00:26:07 57° WNW 00:31:06 10° SSW
SL-08 R/B 4.5 00:20:19 10° S 00:26:30 75° W 00:32:36 10° N
SL-16 R/B 4.2 00:22:23 10° N 00:27:16 29° ENE 00:32:07 10° SE
